Regional Weather Roundup
Issued by NWS

Home | Current Version | Previous Version | Text Only | Print | Product List | Glossary On
Versions: 1 2 3 4 5 6 7 8 9 10 11 12 13 14 15 16 17 18 19 20 21 22 23 24 25 26 27 28 29 30 31 32 33 34 35 36 37 38 39 40 41 42 43 44 45 46 47 48 49 50
000
ASUS43 KDTX 230710
RWRMI
MICHIGAN HOURLY REGIONAL WEATHER ROUNDUP
NATIONAL WEATHER SERVICE DETROIT/PONTIAC MI
200 AM EST MON JAN 23 2017

NOTE: "FAIR" INDICATES FEW OR NO CLOUDS BELOW 12,000 FEET WITH NO
SIGNIFICANT WEATHER AND/OR OBSTRUCTION TO VISIBILITY.

MIZ047>049-052>055-059>063-066>070-074>076-081>083-230800-
SOUTHEAST LOWER MICHIGAN

CITY           SKY/WX    TMP DP  RH WIND       PRES   REMARKS
ADRIAN         FOG       44  44 100 E9        29.60F VSB 3/4
ALMA           CLOUDY    38  38  99 N7        29.65F FOG     WCI  33
ANN ARBOR      FOG       45  45 100 NE7       29.60F VSB 1
BAD AXE        FOG       38  38 100 CALM      29.67S VSB 1/2
CARO           FOG       39  39 100 E5        29.65S VSB 1
DETROIT CITY   FOG       41  41 100 NE7       29.63S VSB 1
DETROIT        FOG       44  43  96 NE7       29.62F VSB 1
FLINT          FOG       39  39 100 N3        29.63F VSB 3/4
GROSSE ILE     FOG       41  41  99 NE7       29.61R VSB 1/2
HILLSDALE      FOG       43  43 100 N5        29.58F VSB 1/2
HOWELL         FOG       40  39  98 NE3       29.62S VSB 1/2

CITY           SKY/WX    TMP DP  RH WIND       PRES   REMARKS
JACKSON        FOG       42  40  92 N6        29.60F VSB 1/4
LAMBERTVILLE   FOG       43  42  95 E7        29.60S VSB 3/4
LANSING        CLOUDY    40  37  89 N7        29.64F FOG
LAPEER         CLOUDY    40  40 100 NE3       29.64S FOG
MASON          FOG       39  39 100 N5        29.62S VSB 1/2
MONROE         FOG       42  42 100 NE6       29.60S VSB 1/2
MT. CLEMENS    CLOUDY    41  41 100 NE5       29.62S FOG
PONTIAC        FOG       42  41  96 E6        29.60F VSB 1/4
PORT HOPE        N/A     36  36 100 E3        29.66F
PORT HURON     FOG       39  39 100 NE3       29.65S VSB 1/2
TRI CITIES     FOG       37  37 100 N8        29.66F VSB 1/4 WCI  31
MIDLAND        CLOUDY    39  38  97 CALM      29.66S FOG
TROY           FOG       43  42  96 NE7       29.65R VSB 1/2
SAGINAW HB     FOG       36  34  93 N6        29.66S VSB 3/4 WCI  31
$$
MIZ043>046-050>051-056>058-064>065-071>073-077>080-230800-
SOUTHWEST LOWER MICHIGAN

CITY           SKY/WX    TMP DP  RH WIND       PRES   REMARKS
BATTLE CREEK   FOG       41  41 100 N6        29.62S VSB 3/4
BENTON HARBOR  CLOUDY    40  38  93 VRB5      29.65S FOG
BIG RAPIDS     FOG       35  35  98 CALM      29.66S VSB 1
COLDWATER      FOG       42  42 100 N6        29.59F VSB 1
FREMONT        CLOUDY    38  38 100 NW6       29.67S FOG     WCI  33
HOLLAND        CLOUDY    41  39  93 N5        29.66F
GRAND RAPIDS   FOG       41  39  93 N6        29.65F VSB 1
IONIA          FOG       38  38  99 N6        29.63F VSB 1/2 WCI  34
KALAMAZOO      FOG       42  39  89 N10       29.62F VSB 1/2
LUDINGTON      FOG       37  37 100 NW5       29.69F VSB<1/4 WCI  33
MARSHALL       CLOUDY    41  40  98 N3        29.60F FOG
MOUNT PLEASANT FOG       37  37  99 CALM      29.66S VSB 1/2
MUSKEGON       CLOUDY    40  38  93 NW5       29.68F
SOUTH HAVEN    CLOUDY    40  40 100 N5        29.65F FOG
$$
MIZ016>042-230800-
NORTHERN LOWER MICHIGAN

CITY           SKY/WX    TMP DP  RH WIND       PRES   REMARKS
ALPENA         FOG       38  37  97 E5        29.71S VSB 1/4 WCI  34
BEAVER ISLAND  CLOUDY    35  35 100 E3        29.71S FOG
BELLAIRE       FOG       34  34  99 CALM      29.71R VSB 1/2
CADILLAC       FOG       37  35  95 NW6       29.67S VSB 1/2 WCI  32
CHARLEVOIX     FOG       36  36 100 CALM      29.73S VSB 1/2
FRANKFORT      FOG      N/A N/A N/A CALM      29.71S VSB 1/2
GAYLORD        FOG       38  34  85 W3        29.68R VSB 1/2
GRAYLING       FOG       36  36  97 CALM      29.69R VSB 1/2
HARBOR SPRINGS LGT RAIN  35  35 100 CALM      29.71R VSB 1
HOUGHTON LAKE  FOG       35  35 100 CALM      29.68R VSB 1/2
MANISTEE       FOG       36  36 100 NW5       29.70F VSB 1/4 WCI  32
OSCODA         FOG       37  37  97 CALM      29.69R VSB 1/2
PELLSTON       FOG       35  34  96 CALM      29.72R VSB 1/4
ROGERS CITY    FOG       37  36  96 E5        29.72S VSB 1/4 WCI  33
TRAVERSE CITY  FOG       37  37 100 CALM      29.69S VSB 1/2
$$
MIZ007>008-015-230800-
EASTERN UPPER MICHIGAN

CITY           SKY/WX    TMP DP  RH WIND       PRES   REMARKS
KINROSS        CLOUDY    35  35 100 E7        29.73R FOG     WCI  29
MACKINAC ISLAN FOG       35  35 100 E3        29.72R VSB 1/2
NEWBERRY       FOG       34  33  96 CALM      29.71S VSB 1/2
S. S. MARIE    CLOUDY    37  36  96 SE5       29.73R FOG     WCI  33
MUNISING         N/A     34  34 100 CALM      29.71S
$$
MIZ004>006-011>014-085-230800-
CENTRAL UPPER MICHIGAN

CITY           SKY/WX    TMP DP  RH WIND       PRES   REMARKS
MANISTIQUE     FOG       34  33  96 CALM      29.72R VSB 3/4
ESCANABA       FOG       36  35  96 CALM      29.72S VSB 1/2
SAWYER-GWINN   FOG       33  33  99 CALM      29.70S VSB 1/4
$$
MIZ001>003-009>011-084-230800-
WESTERN UPPER MICHIGAN

CITY           SKY/WX    TMP DP  RH WIND       PRES   REMARKS
IRON MOUNTAIN  CLOUDY    34  32  92 CALM      29.71R
HOUGHTON       FOG       34  32  92 NW7       29.69R VSB 1/2 WCI  28
COPPER HARBOR    N/A     37  36  96 CALM      29.69R
IRONWOOD       LGT RAIN  34  34 100 S3        29.73R VSB 1
$$

ABBREVIATIONS USED IN REMARKS
   TC - TEMPERATURE IN CELSIUS
  WCI - WIND CHILL INDEX
   HX - HEAT INDEX
  VSB - VISIBILITY




USA.gov is the U.S. government's official web portal to all federal, state and local government web resources and services.